Starlink 30324

operational
NORAD ID: 57640 Int'l Des: 2023-122 Owner: SPXS Country: US Constellation: starlink
LEOCIRCULAR

Über Starlink 30324

Beschreibung wird geladen...

Live-Position

3D-Globus wird geladen...

Nächste Überflüge

Höhenverlauf

Altitude vs Time

uPlot chart will show altitude changes over time

Zweizeiliger Elementsatz

1 57640U 23122J 25352.93867045 -.00002505 00000-0 -17037-3 0 9996
2 57640 43.0021 173.5110 0001189 273.8890 86.1816 15.02543034130032
Epoch: 18. Dez. 2025 • Age: 8 hours

Aktueller Status

Höhe 561.8 km
Geschwindigkeit 7.59 km/s
Subsatellitenpunkt 37.98°N, 38.05°E
Startdatum 17. Aug. 2023
Alter 2.3 years
Typ internet

Technische Details

Klassifizierung Payload
Masse 730.00 kg
Trockenmasse 700.00 kg
Gesamtmasse 730.00 kg
Länge 0.30 m
Durchmesser 4.10 m
Spannweite 29.00 m
Form Box + pan
Hersteller SPXS
Bus-Typ Starlink V2M
Phasenstatus In Orbit
Besitzer/Staat SPXS/US

Große Konstellationen

Loading constellations...